����������;��������(kWh)
2016-04-25 00:00;70,85
2016-04-25 00:15;70,6
2016-04-25 00:30;69,25
2016-04-25 00:45;69,4
2016-04-25 01:00;69,6
2016-04-25 01:15;68,25
2016-04-25 01:30;67,55
2016-04-25 01:45;67,2
2016-04-25 02:00;67,25
2016-04-25 02:15;66,55
2016-04-25 02:30;65,55
2016-04-25 02:45;64,4
2016-04-25 03:00;65,4
2016-04-25 03:15;64,45
2016-04-25 03:30;66,25
2016-04-25 03:45;65,45
2016-04-25 04:00;69,5
2016-04-25 04:15;71,6
2016-04-25 04:30;72,05
2016-04-25 04:45;73
2016-04-25 05:00;74,1
2016-04-25 05:15;72,55
2016-04-25 05:30;68,25
2016-04-25 05:45;66,5
2016-04-25 06:00;66,1
2016-04-25 06:15;65,05
2016-04-25 06:30;64,9
2016-04-25 06:45;60
2016-04-25 07:00;58,1
2016-04-25 07:15;60,05
2016-04-25 07:30;60,4
2016-04-25 07:45;66,45
2016-04-25 08:00;68,95
2016-04-25 08:15;69,3
2016-04-25 08:30;71,65
2016-04-25 08:45;71,7
2016-04-25 09:00;74,45
2016-04-25 09:15;77,95
2016-04-25 09:30;79,25
2016-04-25 09:45;79,05
2016-04-25 10:00;80,55
2016-04-25 10:15;83,1
2016-04-25 10:30;85,3
2016-04-25 10:45;87,3
2016-04-25 11:00;91,95
2016-04-25 11:15;86,8
2016-04-25 11:30;89,4
2016-04-25 11:45;91
2016-04-25 12:00;94,1
2016-04-25 12:15;93,1
2016-04-25 12:30;96,6
2016-04-25 12:45;97,6
2016-04-25 13:00;98,15
2016-04-25 13:15;97,15
2016-04-25 13:30;94,9
2016-04-25 13:45;95,95
2016-04-25 14:00;93,8
2016-04-25 14:15;92,55
2016-04-25 14:30;90,3
2016-04-25 14:45;89,2
2016-04-25 15:00;88,5
2016-04-25 15:15;87,1
2016-04-25 15:30;84,85
2016-04-25 15:45;82,8
2016-04-25 16:00;78,25
2016-04-25 16:15;76,8
2016-04-25 16:30;77
2016-04-25 16:45;77,2
2016-04-25 17:00;77,65
2016-04-25 17:15;77,15
2016-04-25 17:30;77,05
2016-04-25 17:45;77,05
2016-04-25 18:00;75,45
2016-04-25 18:15;76,1
2016-04-25 18:30;74,5
2016-04-25 18:45;73,2
2016-04-25 19:00;73,3
2016-04-25 19:15;70,9
2016-04-25 19:30;73,05
2016-04-25 19:45;72,1
2016-04-25 20:00;72,4
2016-04-25 20:15;73,75
2016-04-25 20:30;76,35
2016-04-25 20:45;76,7
2016-04-25 21:00;81,2
2016-04-25 21:15;82,5
2016-04-25 21:30;82,5
2016-04-25 21:45;83,05
2016-04-25 22:00;83,15
2016-04-25 22:15;76
2016-04-25 22:30;75,6
2016-04-25 22:45;74,65
2016-04-25 23:00;74,35
2016-04-25 23:15;73,55
2016-04-25 23:30;70,85
2016-04-25 23:45;71,95
2016-04-26 00:00;69,1
2016-04-26 00:15;67
2016-04-26 00:30;67,15
2016-04-26 00:45;67,1
2016-04-26 01:00;67,6
2016-04-26 01:15;65,65
2016-04-26 01:30;65,45
2016-04-26 01:45;65,1
2016-04-26 02:00;64,9
2016-04-26 02:15;66,75
2016-04-26 02:30;66,05
2016-04-26 02:45;66,2
2016-04-26 03:00;66,15
2016-04-26 03:15;66,85
2016-04-26 03:30;65,1
2016-04-26 03:45;65,9
2016-04-26 04:00;65,9
2016-04-26 04:15;66,5
2016-04-26 04:30;64,95
2016-04-26 04:45;66,4
2016-04-26 05:00;66,05
2016-04-26 05:15;66,8
2016-04-26 05:30;65,95
2016-04-26 05:45;65,05
2016-04-26 06:00;63,7
2016-04-26 06:15;65,15
2016-04-26 06:30;64,35
2016-04-26 06:45;60,5
2016-04-26 07:00;59,05
2016-04-26 07:15;58,85
2016-04-26 07:30;61,3
2016-04-26 07:45;65,3
2016-04-26 08:00;66,5
2016-04-26 08:15;64,5
2016-04-26 08:30;67,65
2016-04-26 08:45;70,65
2016-04-26 09:00;74
2016-04-26 09:15;74,1
2016-04-26 09:30;75,95
2016-04-26 09:45;76,9
2016-04-26 10:00;78,3
2016-04-26 10:15;81,95
2016-04-26 10:30;82,7
2016-04-26 10:45;84,55
2016-04-26 11:00;86,95
2016-04-26 11:15;83,65
2016-04-26 11:30;93
2016-04-26 11:45;94,1
2016-04-26 12:00;93,8
2016-04-26 12:15;93,55
2016-04-26 12:30;86,75
2016-04-26 12:45;87,95
2016-04-26 13:00;87,2
2016-04-26 13:15;88,3
2016-04-26 13:30;87,2
2016-04-26 13:45;86,2
2016-04-26 14:00;87,05
2016-04-26 14:15;86,05
2016-04-26 14:30;84,8
2016-04-26 14:45;82,8
2016-04-26 15:00;79,65
2016-04-26 15:15;79,25
2016-04-26 15:30;78,75
2016-04-26 15:45;77,55
2016-04-26 16:00;76,25
2016-04-26 16:15;74,85
2016-04-26 16:30;74,5
2016-04-26 16:45;73,6
2016-04-26 17:00;73,8
2016-04-26 17:15;71,4
2016-04-26 17:30;69,3
2016-04-26 17:45;70,25
2016-04-26 18:00;69,65
2016-04-26 18:15;69,85
2016-04-26 18:30;66,95
2016-04-26 18:45;67,3
2016-04-26 19:00;65,9
2016-04-26 19:15;65,5
2016-04-26 19:30;64,95
2016-04-26 19:45;64
2016-04-26 20:00;64,85
2016-04-26 20:15;65,15
2016-04-26 20:30;68,7
2016-04-26 20:45;70,85
2016-04-26 21:00;69,65
2016-04-26 21:15;70,85
2016-04-26 21:30;70,7
2016-04-26 21:45;72,65
2016-04-26 22:00;71,45
2016-04-26 22:15;71,65
2016-04-26 22:30;71
2016-04-26 22:45;71,05
2016-04-26 23:00;72,5
2016-04-26 23:15;69,9
2016-04-26 23:30;70,9
2016-04-26 23:45;70,3
2016-04-27 00:00;69,1
2016-04-27 00:15;67,6
2016-04-27 00:30;68,25
2016-04-27 00:45;68,65
2016-04-27 01:00;69,3
2016-04-27 01:15;69
2016-04-27 01:30;68,95
2016-04-27 01:45;70,75
2016-04-27 02:00;67,55
2016-04-27 02:15;67,5
2016-04-27 02:30;67,6
2016-04-27 02:45;68,75
2016-04-27 03:00;67,95
2016-04-27 03:15;67,9
2016-04-27 03:30;67,85
2016-04-27 03:45;68,65
2016-04-27 04:00;68,85
2016-04-27 04:15;67,5
2016-04-27 04:30;67,8
2016-04-27 04:45;67,75
2016-04-27 05:00;68,6
2016-04-27 05:15;67,5
2016-04-27 05:30;67,45
2016-04-27 05:45;67,55
2016-04-27 06:00;68,55
2016-04-27 06:15;68,8
2016-04-27 06:30;65,8
2016-04-27 06:45;60,65
2016-04-27 07:00;61,1
2016-04-27 07:15;60,95
2016-04-27 07:30;61,5
2016-04-27 07:45;62,45
2016-04-27 08:00;64,1
2016-04-27 08:15;66,95
2016-04-27 08:30;71,7
2016-04-27 08:45;72
2016-04-27 09:00;73,65
2016-04-27 09:15;76,4
2016-04-27 09:30;78,75
2016-04-27 09:45;74,95
2016-04-27 10:00;72,05
2016-04-27 10:15;76,05
2016-04-27 10:30;76,75
2016-04-27 10:45;77,5
2016-04-27 11:00;80,3
2016-04-27 11:15;76,35
2016-04-27 11:30;74,65
2016-04-27 11:45;77,25
2016-04-27 12:00;77,05
2016-04-27 12:15;75,8
2016-04-27 12:30;76,2
2016-04-27 12:45;76,55
2016-04-27 13:00;77,95
2016-04-27 13:15;76,85
2016-04-27 13:30;78,8
2016-04-27 13:45;77,35
2016-04-27 14:00;78,25
2016-04-27 14:15;78,8
2016-04-27 14:30;76,8
2016-04-27 14:45;75,8
2016-04-27 15:00;73,45
2016-04-27 15:15;72,25
2016-04-27 15:30;71,95
2016-04-27 15:45;71,5
2016-04-27 16:00;69,8
2016-04-27 16:15;69,35
2016-04-27 16:30;68,7
2016-04-27 16:45;69,25
2016-04-27 17:00;67,85
2016-04-27 17:15;67
2016-04-27 17:30;68,05
2016-04-27 17:45;68,2
2016-04-27 18:00;66,8
2016-04-27 18:15;68,05
2016-04-27 18:30;65,95
2016-04-27 18:45;66,45
2016-04-27 19:00;66,15
2016-04-27 19:15;67,25
2016-04-27 19:30;67
2016-04-27 19:45;64,55
2016-04-27 20:00;65,65
2016-04-27 20:15;68,1
2016-04-27 20:30;72,6
2016-04-27 20:45;76,95
2016-04-27 21:00;77,4
2016-04-27 21:15;76,75
2016-04-27 21:30;76
2016-04-27 21:45;76,05
2016-04-27 22:00;75,5
2016-04-27 22:15;75,55
2016-04-27 22:30;74,3
2016-04-27 22:45;74,15
2016-04-27 23:00;74,35
2016-04-27 23:15;71,65
2016-04-27 23:30;71,7
2016-04-27 23:45;71,45
2016-04-28 00:00;71,45
2016-04-28 00:15;71,9
2016-04-28 00:30;72,2
2016-04-28 00:45;72,1
2016-04-28 01:00;70,6
2016-04-28 01:15;70,15
2016-04-28 01:30;69,35
2016-04-28 01:45;70
2016-04-28 02:00;70,2
2016-04-28 02:15;69,1
2016-04-28 02:30;69,25
2016-04-28 02:45;68,15
2016-04-28 03:00;68,2
2016-04-28 03:15;68,25
2016-04-28 03:30;69,5
2016-04-28 03:45;69
2016-04-28 04:00;67,95
2016-04-28 04:15;68,4
2016-04-28 04:30;67,5
2016-04-28 04:45;67,65
2016-04-28 05:00;68,6
2016-04-28 05:15;67,45
2016-04-28 05:30;69,3
2016-04-28 05:45;67,6
2016-04-28 06:00;68,1
2016-04-28 06:15;68,5
2016-04-28 06:30;65,4
2016-04-28 06:45;62,85
2016-04-28 07:00;60,1
2016-04-28 07:15;60,2
2016-04-28 07:30;60,2
2016-04-28 07:45;61,9
2016-04-28 08:00;61,25
2016-04-28 08:15;61,55
2016-04-28 08:30;61,9
2016-04-28 08:45;61,5
2016-04-28 09:00;61,85
2016-04-28 09:15;62,3
2016-04-28 09:30;62,8
2016-04-28 09:45;61,4
2016-04-28 10:00;65,95
2016-04-28 10:15;70,7
2016-04-28 10:30;71,35
2016-04-28 10:45;72,4
2016-04-28 11:00;75,75
2016-04-28 11:15;69,15
2016-04-28 11:30;64,75
2016-04-28 11:45;64,95
2016-04-28 12:00;65,55
2016-04-28 12:15;63,15
2016-04-28 12:30;63,6
2016-04-28 12:45;63,1
2016-04-28 13:00;65,15
2016-04-28 13:15;63,35
2016-04-28 13:30;64,1
2016-04-28 13:45;63,4
2016-04-28 14:00;64,2
2016-04-28 14:15;63,6
2016-04-28 14:30;63,8
2016-04-28 14:45;62,5
2016-04-28 15:00;63,5
2016-04-28 15:15;65,7
2016-04-28 15:30;63,4
2016-04-28 15:45;64,1
2016-04-28 16:00;63,8
2016-04-28 16:15;64,5
2016-04-28 16:30;65,3
2016-04-28 16:45;65,15
2016-04-28 17:00;64,1
2016-04-28 17:15;63,65
2016-04-28 17:30;63,3
2016-04-28 17:45;65,55
2016-04-28 18:00;67,05
2016-04-28 18:15;65,45
2016-04-28 18:30;66
2016-04-28 18:45;64,8
2016-04-28 19:00;65,65
2016-04-28 19:15;64,65
2016-04-28 19:30;64,85
2016-04-28 19:45;64,4
2016-04-28 20:00;64,25
2016-04-28 20:15;66,85
2016-04-28 20:30;70,1
2016-04-28 20:45;73,75
2016-04-28 21:00;73,15
2016-04-28 21:15;76,7
2016-04-28 21:30;75,5
2016-04-28 21:45;76,7
2016-04-28 22:00;75,95
2016-04-28 22:15;77,65
2016-04-28 22:30;72,95
2016-04-28 22:45;74,2
2016-04-28 23:00;72,95
2016-04-28 23:15;68,8
2016-04-28 23:30;70,2
2016-04-28 23:45;70,4
2016-04-29 00:00;72,75
2016-04-29 00:15;70,7
2016-04-29 00:30;71,1
2016-04-29 00:45;73,95
2016-04-29 01:00;72,55
2016-04-29 01:15;71,7
2016-04-29 01:30;71,7
2016-04-29 01:45;69,45
2016-04-29 02:00;71
2016-04-29 02:15;68,5
2016-04-29 02:30;69
2016-04-29 02:45;68,6
2016-04-29 03:00;69,9
2016-04-29 03:15;69,3
2016-04-29 03:30;69,15
2016-04-29 03:45;69,85
2016-04-29 04:00;68,8
2016-04-29 04:15;70,45
2016-04-29 04:30;68,45
2016-04-29 04:45;71
2016-04-29 05:00;69,2
2016-04-29 05:15;70,5
2016-04-29 05:30;71,3
2016-04-29 05:45;68,1
2016-04-29 06:00;70
2016-04-29 06:15;70
2016-04-29 06:30;66,2
2016-04-29 06:45;62,5
2016-04-29 07:00;61
2016-04-29 07:15;62,7
2016-04-29 07:30;60,6
2016-04-29 07:45;64,55
2016-04-29 08:00;63,6
2016-04-29 08:15;62,8
2016-04-29 08:30;63,5
2016-04-29 08:45;61,05
2016-04-29 09:00;63,1
2016-04-29 09:15;63,6
2016-04-29 09:30;63,1
2016-04-29 09:45;62,4
2016-04-29 10:00;60,9
2016-04-29 10:15;69,9
2016-04-29 10:30;69,05
2016-04-29 10:45;72,75
2016-04-29 11:00;75,3
2016-04-29 11:15;71,15
2016-04-29 11:30;62,25
2016-04-29 11:45;62,3
2016-04-29 12:00;61
2016-04-29 12:15;61,45
2016-04-29 12:30;61,5
2016-04-29 12:45;62,35
2016-04-29 13:00;61,65
2016-04-29 13:15;63,4
2016-04-29 13:30;63,1
2016-04-29 13:45;63,85
2016-04-29 14:00;62,6
2016-04-29 14:15;64,6
2016-04-29 14:30;65,3
2016-04-29 14:45;60,55
2016-04-29 15:00;62,85
2016-04-29 15:15;61,9
2016-04-29 15:30;62,35
2016-04-29 15:45;63,9
2016-04-29 16:00;62,55
2016-04-29 16:15;63,5
2016-04-29 16:30;62,5
2016-04-29 16:45;63,25
2016-04-29 17:00;61,95
2016-04-29 17:15;62,55
2016-04-29 17:30;60,85
2016-04-29 17:45;63,25
2016-04-29 18:00;63,75
2016-04-29 18:15;65,6
2016-04-29 18:30;62,9
2016-04-29 18:45;65,15
2016-04-29 19:00;63,2
2016-04-29 19:15;64,25
2016-04-29 19:30;63,35
2016-04-29 19:45;64
2016-04-29 20:00;62,35
2016-04-29 20:15;66
2016-04-29 20:30;69,2
2016-04-29 20:45;73,45
2016-04-29 21:00;71,4
2016-04-29 21:15;73,55
2016-04-29 21:30;72,45
2016-04-29 21:45;72,5
2016-04-29 22:00;74,35
2016-04-29 22:15;71,45
2016-04-29 22:30;71,6
2016-04-29 22:45;71,2
2016-04-29 23:00;72,2
2016-04-29 23:15;69,2
2016-04-29 23:30;70,9
2016-04-29 23:45;70,65
2016-04-30 00:00;69,65
2016-04-30 00:15;70,5
2016-04-30 00:30;68,35
2016-04-30 00:45;71,35
2016-04-30 01:00;69,05
2016-04-30 01:15;69,7
2016-04-30 01:30;68
2016-04-30 01:45;69,85
2016-04-30 02:00;68
2016-04-30 02:15;69,2
2016-04-30 02:30;68,25
2016-04-30 02:45;69,95
2016-04-30 03:00;72,7
2016-04-30 03:15;71,8
2016-04-30 03:30;74,85
2016-04-30 03:45;73,2
2016-04-30 04:00;70,2
2016-04-30 04:15;67,55
2016-04-30 04:30;66,1
2016-04-30 04:45;68,35
2016-04-30 05:00;67,6
2016-04-30 05:15;67,55
2016-04-30 05:30;67
2016-04-30 05:45;66,75
2016-04-30 06:00;66,7
2016-04-30 06:15;66
2016-04-30 06:30;67,2
2016-04-30 06:45;62,1
2016-04-30 07:00;61,8
2016-04-30 07:15;61,15
2016-04-30 07:30;61,65
2016-04-30 07:45;62
2016-04-30 08:00;62,25
2016-04-30 08:15;62,05
2016-04-30 08:30;62,05
2016-04-30 08:45;63
2016-04-30 09:00;61,75
2016-04-30 09:15;62,5
2016-04-30 09:30;60,4
2016-04-30 09:45;63,05
2016-04-30 10:00;61
2016-04-30 10:15;62,7
2016-04-30 10:30;61,25
2016-04-30 10:45;64,05
2016-04-30 11:00;65,55
2016-04-30 11:15;60,5
2016-04-30 11:30;62,2
2016-04-30 11:45;61,4
2016-04-30 12:00;63,45
2016-04-30 12:15;59,45
2016-04-30 12:30;61,2
2016-04-30 12:45;61,3
2016-04-30 13:00;61,45
2016-04-30 13:15;60,65
2016-04-30 13:30;60,4
2016-04-30 13:45;62,5
2016-04-30 14:00;61,3
2016-04-30 14:15;62,25
2016-04-30 14:30;63,3
2016-04-30 14:45;62,35
2016-04-30 15:00;60,65
2016-04-30 15:15;62,65
2016-04-30 15:30;62,1
2016-04-30 15:45;62,5
2016-04-30 16:00;61,2
2016-04-30 16:15;63,15
2016-04-30 16:30;62,1
2016-04-30 16:45;64,05
2016-04-30 17:00;61
2016-04-30 17:15;61,6
2016-04-30 17:30;61,3
2016-04-30 17:45;62,35
2016-04-30 18:00;62,05
2016-04-30 18:15;62,65
2016-04-30 18:30;63,75
2016-04-30 18:45;61,85
2016-04-30 19:00;63,6
2016-04-30 19:15;62,55
2016-04-30 19:30;61,5
2016-04-30 19:45;63,05
2016-04-30 20:00;63,65
2016-04-30 20:15;62,45
2016-04-30 20:30;67,3
2016-04-30 20:45;69,35
2016-04-30 21:00;71,2
2016-04-30 21:15;70,9
2016-04-30 21:30;73,55
2016-04-30 21:45;72,95
2016-04-30 22:00;72,35
2016-04-30 22:15;73,45
2016-04-30 22:30;70,9
2016-04-30 22:45;73,6
2016-04-30 23:00;71,55
2016-04-30 23:15;69,4
2016-04-30 23:30;70,65
2016-04-30 23:45;70,35
2016-05-01 00:00;71,65
2016-05-01 00:15;71,15
2016-05-01 00:30;68,85
2016-05-01 00:45;71,55
2016-05-01 01:00;70,8
2016-05-01 01:15;70,35
2016-05-01 01:30;70,3
2016-05-01 01:45;68,2
2016-05-01 02:00;69,9
2016-05-01 02:15;69
2016-05-01 02:30;68,35
2016-05-01 02:45;67,55
2016-05-01 03:00;65,2
2016-05-01 03:15;66,95
2016-05-01 03:30;66,2
2016-05-01 03:45;67,15
2016-05-01 04:00;67,5
2016-05-01 04:15;66,2
2016-05-01 04:30;67,4
2016-05-01 04:45;66,65
2016-05-01 05:00;68,15
2016-05-01 05:15;67,6
2016-05-01 05:30;65,4
2016-05-01 05:45;67,4
2016-05-01 06:00;65,35
2016-05-01 06:15;68,4
2016-05-01 06:30;65,4
2016-05-01 06:45;61,3
2016-05-01 07:00;62,75
2016-05-01 07:15;61,7
2016-05-01 07:30;60,3
2016-05-01 07:45;61,95
2016-05-01 08:00;61,35
2016-05-01 08:15;61,6
2016-05-01 08:30;65,85
2016-05-01 08:45;66,65
2016-05-01 09:00;68,65
2016-05-01 09:15;67,25
2016-05-01 09:30;69,05
2016-05-01 09:45;58,6
2016-05-01 10:00;61,05
2016-05-01 10:15;60,2
2016-05-01 10:30;62,25
2016-05-01 10:45;60,95
2016-05-01 11:00;66,25
2016-05-01 11:15;58,75
2016-05-01 11:30;60,05
2016-05-01 11:45;59,25
2016-05-01 12:00;61,25
2016-05-01 12:15;57,65
2016-05-01 12:30;60,05
2016-05-01 12:45;59,45
2016-05-01 13:00;60,35
2016-05-01 13:15;59
2016-05-01 13:30;60,35
2016-05-01 13:45;60,1
2016-05-01 14:00;60,65
2016-05-01 14:15;61,15
2016-05-01 14:30;59,6
2016-05-01 14:45;59,7
2016-05-01 15:00;59,6
2016-05-01 15:15;62,4
2016-05-01 15:30;60,9
2016-05-01 15:45;61,2
2016-05-01 16:00;61,7
2016-05-01 16:15;62,2
2016-05-01 16:30;61,6
2016-05-01 16:45;63,2
2016-05-01 17:00;60,55
2016-05-01 17:15;62,35
2016-05-01 17:30;59,4
2016-05-01 17:45;62,05
2016-05-01 18:00;60,15
2016-05-01 18:15;62,55
2016-05-01 18:30;60,9
2016-05-01 18:45;60,9
2016-05-01 19:00;62,7
2016-05-01 19:15;62,15
2016-05-01 19:30;64,5
2016-05-01 19:45;62,05
2016-05-01 20:00;64,35
2016-05-01 20:15;65,15
2016-05-01 20:30;68,3
2016-05-01 20:45;69,75
2016-05-01 21:00;71,25
2016-05-01 21:15;72,15
2016-05-01 21:30;71,6
2016-05-01 21:45;72,3
2016-05-01 22:00;73,1
2016-05-01 22:15;71,4
2016-05-01 22:30;73,05
2016-05-01 22:45;69,9
2016-05-01 23:00;71,75
2016-05-01 23:15;69,6
2016-05-01 23:30;70,4
2016-05-01 23:45;71,45

